Theta_e
335 334 332 331 331 332 333 335 335 336 338 341 342 340 339 338 340 342 341 341 341 339 339 341 343 344 346 347 346 346 348 348 349 348 346 344 342 341 338 336 333 330
334 334 333 332 331 331 333 334 334 335 335 337 339 339 340 341 340 340 339 340 340 340 340 340 341 342 343 345 345 346 347 347 349 350 349 346 343 341 340 340 337 331
334 333 332 332 332 332 333 334 334 334 333 334 338 341 341 342 342 340 339 339 338 339 339 340 341 341 341 342 344 346 346 347 348 348 349 348 345 342 340 341 340 333
334 333 332 331 331 331 333 334 334 333 332 332 335 338 341 343 343 342 340 339 338 338 338 339 339 340 340 341 342 344 346 346 347 347 348 348 346 344 342 342 342 334
333 332 332 331 331 331 332 334 333 332 331 331 332 334 338 341 343 342 341 340 338 338 337 337 338 338 338 340 341 341 343 344 345 345 346 347 347 345 344 343 344 339
334 333 332 331 331 330 330 331 331 331 331 331 331 332 335 338 340 342 342 341 340 339 338 337 337 337 337 338 339 340 341 342 342 342 343 344 345 345 346 345 344 343
337 335 333 331 330 330 330 330 330 330 330 331 332 332 333 335 338 340 342 342 342 340 339 337 336 336 335 335 336 337 338 340 341 341 341 341 343 343 345 345 344 345
339 337 335 333 332 330 330 329 330 330 331 331 332 332 332 334 337 340 342 343 344 343 341 339 337 336 335 334 335 335 335 337 339 340 341 340 341 341 343 344 344 344
342 340 337 336 334 331 330 330 330 330 331 331 332 332 332 333 335 338 341 344 345 344 343 340 338 337 336 335 334 334 334 335 336 337 339 339 339 340 341 342 344 343
344 342 339 337 335 333 331 330 330 330 331 331 332 332 333 334 335 337 341 344 345 345 344 341 339 337 337 336 335 335 334 334 334 335 336 337 337 338 339 341 342 342
344 343 341 338 336 334 333 332 331 332 332 332 333 333 334 335 336 337 340 342 343 343 342 341 339 337 337 336 335 335 335 334 335 335 335 335 335 336 337 340 341 341
344 343 341 339 336 335 333 332 332 332 333 333 333 334 335 336 336 337 339 339 339 339 339 339 338 338 337 336 336 337 337 336 336 336 336 335 335 334 335 337 340 342
346 344 341 338 336 335 334 333 333 333 333 334 334 334 335 335 336 336 337 336 336 337 337 337 337 338 338 338 338 338 338 338 337 337 337 337 336 335 335 335 337 340
347 343 340 338 336 335 335 334 334 334 334 334 334 334 335 335 335 335 335 335 335 336 337 338 339 340 339 339 339 340 340 340 339 338 338 338 338 337 336 335 335 337
349 344 340 338 338 337 336 335 334 335 335 335 335 334 334 335 335 335 335 335 335 336 337 340 341 341 340 340 339 339 341 341 340 340 339 339 339 339 338 337 336 336
353 348 342 340 339 338 337 336 335 335 336 336 335 334 334 335 337 338 337 336 336 337 338 341 342 341 340 339 338 338 339 340 341 341 341 340 340 340 340 339 337 337
357 353 347 342 339 338 337 336 335 336 336 336 337 336 335 336 338 340 341 340 339 339 340 341 341 340 340 339 339 340 340 341 341 341 342 341 341 340 340 340 339 338
360 357 353 347 342 339 337 335 336 337 337 337 338 337 336 337 338 340 342 343 343 342 343 343 341 340 340 340 341 341 341 342 342 344 344 344 343 342 341 341 341 340
361 360 357 353 349 344 340 338 338 338 338 338 338 338 338 337 337 338 342 345 346 345 344 343 342 340 341 342 343 342 343 343 343 345 346 346 345 344 343 342 342 342
361 361 359 358 355 351 347 344 341 339 338 339 339 339 339 338 336 338 341 343 345 345 344 342 341 341 341 342 344 344 345 345 345 347 348 349 348 346 345 345 344 343
362 361 360 359 358 356 354 350 346 343 342 342 341 340 339 338 337 337 337 338 340 342 343 342 340 340 342 344 345 347 349 350 350 351 352 352 351 350 349 348 347 346
363 362 361 360 359 358 357 355 352 349 346 345 344 343 342 342 341 339 337 337 337 339 342 341 339 341 344 347 349 352 354 355 356 356 355 355 354 353 352 351 350 350
362 362 362 361 360 359 358 357 356 354 351 349 348 348 347 346 345 343 341 340 340 340 340 340 340 345 348 351 353 356 358 359 360 360 359 358 357 357 355 354 353 352
362 362 362 362 361 361 359 358 358 357 356 353 352 350 350 349 348 347 346 345 345 344 342 342 344 349 352 354 356 358 360 361 362 363 362 361 361 360 359 357 356 355
361 362 362 362 362 362 361 360 360 359 358 357 355 353 352 351 351 351 351 350 348 348 348 349 351 353 354 355 356 358 360 362 364 364 364 364 364 363 362 360 359 358
358 361 362 363 363 362 362 362 361 360 360 359 358 357 356 355 354 353 353 352 352 352 353 354 356 357 357 358 358 359 360 361 362 364 364 365 365 365 364 363 361 360
Wind_Speed
39 38 38 37 36 35 34 33 31 30 30 29 28 27 24 23 21 21 20 19 18 18 19 19 18 18 16 15 15 15 15 15 15 15 14 14 14 13 14 16 15 13
40 39 38 38 37 36 36 35 33 32 31 30 30 29 27 25 24 22 21 20 19 19 19 19 19 19 18 17 17 17 16 16 16 16 16 15 15 15 14 14 15 16
42 40 39 38 38 37 36 36 34 33 31 30 30 30 29 28 26 24 22 21 20 19 19 20 20 20 20 19 18 18 18 18 18 17 17 16 16 16 15 15 14 17
43 41 40 39 38 37 36 36 36 34 32 31 30 29 29 29 28 26 24 22 21 20 20 20 21 21 21 20 20 20 19 19 19 18 18 18 18 17 17 17 15 16
43 42 41 40 38 38 37 37 37 36 34 33 31 30 29 28 28 26 25 24 23 23 21 21 21 21 22 22 21 21 21 22 21 20 20 20 20 19 18 18 17 15
44 43 42 40 39 39 39 39 38 37 36 34 32 31 30 29 28 27 26 25 24 24 23 23 22 22 22 22 22 22 23 24 23 22 22 22 22 21 20 20 19 17
47 46 44 42 40 40 40 39 38 37 36 35 34 33 32 31 30 28 27 26 25 25 25 25 24 24 23 23 24 24 24 24 25 25 24 24 23 23 23 22 22 21
49 47 46 44 43 41 41 40 39 38 37 36 36 35 34 32 31 30 29 28 27 27 27 26 26 26 25 25 25 25 25 25 25 26 26 26 26 26 25 25 24 24
50 49 48 47 45 44 42 41 40 39 38 38 37 36 35 34 33 32 31 31 30 29 29 28 28 28 28 28 27 27 27 27 26 27 27 27 28 28 27 27 27 27
50 49 49 48 47 46 44 43 41 40 39 39 38 37 37 36 35 33 32 32 32 32 32 31 31 30 30 30 30 29 29 29 28 28 28 28 28 28 28 29 29 29
51 50 49 49 48 47 45 44 42 41 41 40 39 39 38 37 36 35 34 34 34 34 34 34 33 33 32 32 31 31 30 30 30 30 31 30 29 28 28 29 31 31
52 51 50 49 48 47 46 45 43 43 42 42 41 40 39 39 38 37 36 36 36 36 36 36 35 35 35 34 33 32 32 32 31 32 32 33 32 30 29 30 31 32
52 52 51 50 49 47 46 45 45 44 44 43 42 41 41 40 39 39 38 37 37 37 37 37 37 37 37 36 35 35 34 34 33 33 33 34 34 34 32 32 32 33
52 51 50 49 48 47 47 46 45 45 45 44 43 42 42 41 41 40 39 39 38 38 38 38 38 39 39 38 37 37 36 36 35 35 35 35 36 36 35 34 34 34
51 50 50 49 48 48 47 46 46 46 45 44 44 44 43 42 42 41 41 41 40 39 39 40 40 41 41 40 39 39 38 38 38 37 37 36 37 37 37 37 37 37
50 50 50 49 49 49 48 46 46 46 46 45 45 44 44 43 42 42 42 42 42 42 41 41 42 43 42 42 41 40 40 40 40 39 39 38 38 38 38 39 39 39
48 49 50 50 49 49 48 47 46 46 46 45 45 44 44 43 42 42 43 43 43 42 43 43 44 43 43 43 42 42 41 41 41 41 41 40 40 39 39 40 40 40
47 47 48 49 49 49 48 47 46 46 46 46 46 45 44 43 43 43 43 42 42 42 42 43 43 43 43 43 43 43 42 42 43 43 43 42 42 41 40 40 40 40
46 46 46 47 48 48 48 48 47 47 47 47 46 45 44 44 44 44 43 42 43 43 43 43 43 42 42 42 42 42 42 42 43 44 45 44 44 43 42 41 41 41
47 46 46 45 46 46 47 48 48 48 48 47 46 45 46 45 45 44 44 44 44 44 44 44 43 43 43 42 42 41 41 41 43 44 45 45 45 45 44 43 43 42
48 47 46 45 44 44 45 46 47 48 48 47 47 47 47 46 45 45 44 45 45 45 45 45 45 44 44 44 43 42 41 41 41 43 45 46 47 47 46 46 45 44
49 48 47 45 44 43 44 45 45 46 47 47 47 47 47 47 46 46 46 45 45 45 46 47 47 46 46 45 44 42 41 40 41 41 43 45 47 47 48 47 47 47
48 48 47 46 45 44 44 44 44 44 45 46 47 47 47 48 48 48 47 47 46 47 47 48 48 47 47 47 45 43 41 40 40 40 41 43 44 45 47 47 47 48
44 47 47 46 46 45 44 43 43 43 43 43 45 46 47 47 47 47 47 48 48 48 48 49 49 48 47 46 45 42 40 40 40 40 41 42 42 42 44 45 47 48
39 43 46 46 46 45 44 42 42 42 42 42 43 44 45 46 46 46 47 47 48 49 49 49 49 47 46 46 45 42 39 38 37 39 41 42 41 40 41 43 45 47
37 39 42 44 45 44 43 42 41 41 41 41 41 42 43 43 44 45 46 46 46 47 47 47 47 45 45 44 43 41 40 38 38 40 41 41 40 41 41 42 43 45
Wind_Direction
214 213 214 213 213 215 217 218 217 217 216 216 220 223 223 221 220 222 221 218 217 215 216 216 218 221 220 217 217 218 219 222 225 226 225 224 222 217 209 216 229 221
217 216 215 215 215 216 218 220 220 220 220 220 221 224 226 226 225 226 226 224 222 220 218 217 218 221 222 221 221 221 222 224 226 226 226 228 228 226 220 219 229 230
218 218 217 215 216 217 218 220 221 222 224 224 222 222 225 227 228 229 229 229 228 225 223 220 219 222 223 223 223 223 224 228 231 231 231 232 232 233 231 228 229 231
219 219 219 217 217 217 218 219 221 223 226 227 226 224 224 225 228 230 230 230 231 230 227 224 222 223 224 224 226 226 225 229 233 236 237 237 237 237 236 237 234 230
220 221 220 219 218 218 218 219 221 224 226 228 229 228 227 225 225 227 229 230 231 232 231 228 226 225 224 225 227 228 227 228 231 234 237 239 241 240 238 239 240 234
221 221 221 221 219 219 219 221 223 224 226 228 229 230 230 229 227 227 227 228 229 231 232 232 231 228 227 226 227 229 229 228 229 231 234 237 240 242 242 241 243 241
221 221 222 222 221 221 221 222 223 224 225 227 229 231 230 230 230 229 228 228 229 231 232 233 234 232 232 230 228 230 230 230 231 231 233 236 239 242 243 243 244 244
222 222 222 222 222 222 222 223 223 224 225 227 228 231 232 231 230 230 230 229 230 232 233 234 236 235 235 235 233 232 232 233 233 233 234 234 237 241 242 243 244 245
223 223 223 223 223 223 223 223 224 224 226 227 229 231 232 233 232 230 230 230 231 232 233 236 238 238 238 238 238 236 235 235 236 236 236 235 236 239 242 243 244 245
222 224 224 224 224 225 225 224 225 225 226 228 230 231 232 233 234 232 230 230 232 233 233 235 238 240 240 241 241 240 239 239 239 239 240 240 240 240 241 243 244 246
222 223 225 225 226 226 226 226 226 226 228 229 230 231 232 233 233 233 231 231 233 235 236 237 238 241 242 243 244 244 243 242 242 242 242 244 244 243 242 243 244 246
223 223 224 226 227 227 227 227 227 228 229 230 230 231 232 233 233 234 233 233 234 236 238 240 241 242 243 245 246 245 245 245 244 244 244 244 245 245 245 244 244 246
223 223 224 227 228 228 228 228 228 228 229 230 232 232 232 233 233 234 235 236 237 237 238 241 242 243 243 245 246 246 246 246 246 246 246 245 245 245 245 245 245 246
223 225 226 227 229 229 229 229 229 228 229 230 232 232 233 234 235 236 237 239 240 240 240 241 241 242 243 243 244 245 245 246 247 248 247 247 247 246 245 245 245 246
224 225 227 228 228 229 229 229 229 229 229 230 232 233 235 235 236 237 239 240 241 242 242 242 241 241 242 243 243 244 244 245 247 248 249 249 248 248 247 246 245 246
224 225 226 227 227 228 229 229 229 229 229 229 231 234 236 236 236 236 238 240 241 242 242 242 241 242 244 244 245 245 245 246 246 247 249 249 249 249 248 248 247 247
225 225 225 226 227 228 229 230 229 229 229 230 231 233 235 237 237 237 237 239 240 242 242 242 243 244 245 245 246 246 246 246 246 247 248 249 249 249 249 250 249 249
226 226 225 226 227 227 228 230 229 229 229 229 230 232 234 236 238 239 238 238 239 241 242 244 245 247 247 246 246 246 246 247 247 247 247 248 249 250 250 251 251 251
227 228 227 227 227 227 228 228 228 229 229 229 230 231 233 236 238 240 239 238 239 241 243 245 248 249 249 249 248 248 248 248 248 247 247 248 249 250 251 251 251 252
227 229 230 230 229 228 227 227 228 229 229 229 230 230 231 235 237 239 240 240 240 243 245 248 250 251 251 251 250 250 249 249 249 248 247 248 250 251 251 251 252 253
226 228 229 231 231 230 229 229 229 229 229 228 229 230 231 234 236 238 240 242 243 244 246 249 252 253 253 252 251 250 249 249 249 249 249 249 250 250 251 251 253 253
225 226 226 228 231 232 232 231 230 230 229 228 229 230 231 232 234 237 239 242 244 245 246 249 252 252 252 252 251 250 249 249 249 250 250 251 251 251 251 251 251 252
226 226 225 225 228 230 233 233 232 232 231 230 229 229 230 231 233 236 238 240 242 244 246 249 251 250 249 250 250 250 249 248 248 249 251 252 253 252 252 252 251 251
228 227 227 226 225 227 231 234 234 234 233 233 232 231 231 232 234 235 237 239 241 243 246 249 249 248 248 249 250 250 251 250 250 251 252 254 255 254 254 254 254 253
231 229 228 227 227 227 228 231 234 236 235 235 235 235 234 234 234 235 237 239 241 243 246 248 248 248 248 249 250 251 252 253 253 254 255 255 254 255 256 257 257 256
234 232 229 228 228 228 228 229 233 235 235 235 236 236 236 236 236 237 239 241 243 244 245 247 248 249 250 250 251 251 252 253 254 255 256 256 256 256 258 259 259 259